Starlink 31964

operational
NORAD ID: 59895 Int'l Des: 2024-100 Owner: SPXS Country: US Constellation: starlink
LEOCIRCULAR

About Starlink 31964

Description loading...

Live Position

Loading 3D Globe...

Upcoming Passes

Altitude History

Altitude vs Time

uPlot chart will show altitude changes over time

Two-Line Element Set

1 59895U 24100L 26095.05878068 .00003346 00000-0 13109-3 0 9990
2 59895 43.0025 336.1402 0002788 245.0034 115.0528 15.27573737105144
Epoch: Apr 5, 2026 • Age: 14 hours

Current Status

Altitude 493.2 km
Velocity 7.62 km/s
Sub-Earth Point -40.11°S, 157.09°E
Launch Date May 28, 2024
Age 1.8 years
Type internet

Technical Details

Classification Payload
Mass 730.00 kg
Dry Mass 700.00 kg
Total Mass 730.00 kg
Length 0.30 m
Diameter 4.10 m
Span 29.00 m
Shape Box + pan
Manufacturer SPXS
Bus Type Starlink V2M
Phase Status In Orbit
Owner/State SPXS/US

Large Constellations

Loading constellations...